sat.trackr.live / text

‹ back to catalog

STARLINK-4385

NORAD 53198 · 2022-084K

PAYLOAD ACTIVE UNKNOWN

§ Identity

Operator
Country
US
Launch date
2022-07-22
Launch site
AFWTR
Launch vehicle
Mass (kg)
RCS (m²)

Purposes: comms

External: N2YO · Heavens-Above · Gunter

§ Orbital elements

Epoch: 2026-09-19T09:17:48.402528Z

Period
93.91 min
Inclination
97.2804°
Eccentricity
0.0002070
Mean motion
15.33441006 rev/d
Perigee alt
464.1 km
Apogee alt
467.0 km
Semi-major
6,843.7 km
B*
-5.9483e-6
RAAN
317.1602°
Arg perigee
123.5519°
Mean anomaly
236.5922°
Rev number
22,917

§ Raw data

STARLINK-43851 53198U 22084K   26262.38736577 -.00000267  00000+0 -59483-5 0  99962 53198  97.2804 317.1602 0002070 123.5519 236.5922 15.33441006229170

JSON: /api/v1/satellites/53198 · /tle

For live sub-satellite position, see the globe view (requires WebGL).

§ Visibility from observer

Set your observer location to see the next 7 days of passes ≥ 10°. The values pass through the URL so the page stays shareable.

No JS? Fill the form by hand. The geolocation button needs JavaScript.